Starlink 30992

operational
NORAD ID: 58524 Int'l Des: 2023-191 Owner: SPXS Country: US Constellation: starlink
LEOCIRCULAR

About Starlink 30992

Description loading...

Live Position

Loading 3D Globe...

Upcoming Passes

Altitude History

Altitude vs Time

uPlot chart will show altitude changes over time

Two-Line Element Set

1 58524U 23191S 25257.53457951 .00000492 00000-0 51503-4 0 9993
2 58524 43.0042 343.1026 0001236 268.1143 91.9557 15.02536653 98947
Epoch: Sep 14, 2025 • Age: 21 hours

Current Status

Altitude 559.7 km
Velocity 7.59 km/s
Sub-Earth Point 26.57°N, 130.29°W
Launch Date Dec 7, 2023
Age 1.7 years
Type internet

Technical Details

Classification Payload
Mass 730.00 kg
Dry Mass 700.00 kg
Total Mass 730.00 kg
Length 0.30 m
Diameter 4.10 m
Span 29.00 m
Shape Box + pan
Manufacturer SPXS
Bus Type Starlink V2M
Phase Status In Orbit
Owner/State SPXS/US

Large Constellations

Loading constellations...